| time (UTC) | temp F | wind direction | speed MPH | gust MPH | rain 1hr in | rain 24hr in | rain mn in | humidity % | barometer mb |
| 20260906054558 | 73 | 0 | 0.0 | 1.0 | 0.00 | 0.00 | 0.00 | 84 | 1017.7 |
| 20260906053100 | 73 | 0 | 0.0 | 1.0 | 0.00 | 0.00 | 0.00 | 83 | 1017.7 |
| 20260906051557 | 74 | 0 | 0.0 | 1.0 | 0.00 | 0.00 | 0.00 | 83 | 1017.7 |
| 20260906050115 | 74 | 201 | 0.0 | 2.0 | 0.00 | 0.00 | 0.00 | 83 | 1017.9 |
| 20260906044558 | 73 | 0 | 0.0 | 0.0 | 0.00 | 0.00 | 0.00 | 84 | 1018.0 |
| 20260906043057 | 73 | 0 | 0.0 | 0.0 | 0.00 | 0.00 | 0.00 | 84 | 1018.0 |
| 20260906041557 | 74 | 0 | 0.0 | 0.0 | 0.00 | 0.00 | 0.00 | 83 | 1018.2 |
| 20260906040138 | 73 | 203 | 0.0 | 0.0 | 0.00 | 0.00 | 0.00 | 83 | 1018.2 |
| 20260906034605 | 73 | 0 | 0.0 | 0.0 | 0.00 | 0.00 | 0.00 | 84 | 1018.1 |
| 20260906033059 | 73 | 0 | 0.0 | 0.0 | 0.00 | 0.00 | 0.00 | 83 | 1018.1 |
| 20260906031600 | 74 | 0 | 0.0 | 0.0 | 0.00 | 0.00 | 0.00 | 83 | 1018.0 |
| 20260906030059 | 74 | 0 | 0.0 | 1.0 | 0.00 | 0.00 | 0.00 | 82 | 1018.2 |
| 20260906024602 | 74 | 0 | 0.0 | 0.0 | 0.00 | 0.00 | 0.00 | 82 | 1018.3 |
| 20260906023055 | 74 | 0 | 0.0 | 0.0 | 0.00 | 0.00 | 0.00 | 82 | 1018.3 |
| 20260906021605 | 75 | 0 | 0.0 | 1.0 | 0.00 | 0.00 | 0.00 | 80 | 1017.8 |
| 20260906020100 | 76 | 0 | 0.0 | 2.0 | 0.00 | 0.00 | 0.00 | 80 | 1017.3 |
| 20260906014603 | 76 | 188 | 0.0 | 5.0 | 0.00 | 0.00 | 0.00 | 79 | 1017.0 |
| 20260906013101 | 77 | 173 | 2.0 | 6.0 | 0.00 | 0.00 | 0.00 | 78 | 1016.3 |
| 20260906011600 | 77 | 139 | 2.0 | 6.0 | 0.00 | 0.00 | 0.00 | 78 | 1016.0 |
| 20260906010107 | 78 | 171 | 2.0 | 7.0 | 0.00 | 0.00 | 0.00 | 78 | 1015.9 |
| 20260906004606 | 79 | 214 | 2.0 | 6.0 | 0.00 | 0.00 | 0.00 | 76 | 1015.8 |
| 20260906003103 | 79 | 174 | 2.0 | 7.0 | 0.00 | 0.00 | 0.00 | 75 | 1015.7 |
| 20260906001611 | 80 | 232 | 2.0 | 6.0 | 0.00 | 0.00 | 0.00 | 73 | 1015.5 |
| 20260906000057 | 82 | 191 | 3.0 | 7.0 | 0.00 | 0.00 | 0.00 | 71 | 1015.4 |
| 20260905234553 | 82 | 109 | 2.0 | 6.0 | 0.00 | 0.00 | 0.00 | 69 | 1015.3 |
| 20260905233111 | 83 | 129 | 2.0 | 8.0 | 0.00 | 0.00 | 0.00 | 68 | 1015.2 |
| 20260905231600 | 84 | 153 | 1.0 | 3.0 | 0.00 | 0.00 | 0.00 | 66 | 1015.1 |
| 20260905230103 | 84 | 127 | 0.0 | 6.0 | 0.00 | 0.00 | 0.00 | 65 | 1014.9 |
| 20260905224608 | 84 | 233 | 2.0 | 6.0 | 0.00 | 0.00 | 0.00 | 64 | 1014.7 |
| 20260905223057 | 84 | 104 | 2.0 | 5.0 | 0.00 | 0.00 | 0.00 | 63 | 1014.5 |
| 20260905221553 | 84 | 162 | 2.0 | 5.0 | 0.00 | 0.00 | 0.00 | 64 | 1014.7 |
| 20260905214556 | 83 | 174 | 2.0 | 4.0 | 0.00 | 0.00 | 0.00 | 67 | 1015.1 |
| 20260905213105 | 83 | 142 | 2.0 | 6.0 | 0.00 | 0.00 | 0.00 | 67 | 1015.2 |
| 20260905211555 | 83 | 32 | 1.0 | 8.0 | 0.00 | 0.00 | 0.00 | 68 | 1015.2 |
| 20260905210108 | 83 | 226 | 2.0 | 8.0 | 0.00 | 0.00 | 0.00 | 69 | 1015.0 |
| 20260905204556 | 82 | 102 | 1.0 | 7.0 | 0.00 | 0.00 | 0.00 | 69 | 1015.3 |
| 20260905203057 | 82 | 61 | 3.0 | 7.0 | 0.00 | 0.00 | 0.00 | 68 | 1015.7 |
| 20260905201605 | 82 | 26 | 2.0 | 5.0 | 0.00 | 0.00 | 0.00 | 71 | 1016.2 |
| 20260905200128 | 82 | 53 | 2.0 | 4.0 | 0.00 | 0.00 | 0.00 | 72 | 1016.5 |
| 20260905194601 | 81 | 68 | 1.0 | 4.0 | 0.00 | 0.00 | 0.00 | 74 | 1016.7 |
| 20260905193053 | 80 | 18 | 1.0 | 4.0 | 0.00 | 0.00 | 0.00 | 75 | 1016.9 |
| 20260905191555 | 80 | 6 | 0.0 | 2.0 | 0.00 | 0.00 | 0.00 | 75 | 1017.1 |
| 20260905184610 | 80 | 17 | 1.0 | 3.0 | 0.00 | 0.00 | 0.00 | 75 | 1017.0 |
| 20260905183056 | 80 | 357 | 1.0 | 4.0 | 0.00 | 0.00 | 0.00 | 74 | 1017.1 |
| 20260905181555 | 80 | 131 | 0.0 | 2.0 | 0.00 | 0.00 | 0.00 | 75 | 1017.2 |
| 20260905174601 | 78 | 114 | 2.0 | 5.0 | 0.00 | 0.00 | 0.00 | 78 | 1017.8 |
| 20260905173055 | 76 | 215 | 3.0 | 6.0 | 0.00 | 0.00 | 0.00 | 81 | 1018.0 |
| 20260905171604 | 74 | 184 | 2.0 | 5.0 | 0.00 | 0.00 | 0.00 | 82 | 1018.3 |
| 20260905170056 | 74 | 257 | 1.0 | 5.0 | 0.00 | 0.00 | 0.00 | 83 | 1018.2 |
| 20260905164559 | 74 | 65 | 1.0 | 5.0 | 0.00 | 0.00 | 0.00 | 83 | 1018.3 |
| 20260905163057 | 73 | 0 | 0.0 | 2.0 | 0.00 | 0.00 | 0.00 | 85 | 1018.3 |
| 20260905161558 | 73 | 20 | 0.0 | 2.0 | 0.00 | 0.00 | 0.00 | 85 | 1018.4 |
| 20260905160053 | 71 | 329 | 1.0 | 3.0 | 0.00 | 0.00 | 0.00 | 87 | 1018.2 |
| 20260905154559 | 71 | 38 | 1.0 | 4.0 | 0.00 | 0.00 | 0.00 | 87 | 1018.2 |
| 20260905153055 | 71 | 148 | 0.0 | 1.0 | 0.00 | 0.00 | 0.00 | 88 | 1018.3 |
| 20260905151555 | 71 | 79 | 0.0 | 2.0 | 0.00 | 0.00 | 0.00 | 88 | 1017.9 |
| 20260905150058 | 71 | 109 | 0.0 | 1.0 | 0.00 | 0.00 | 0.00 | 90 | 1017.6 |
| 20260905144557 | 70 | 172 | 0.0 | 3.0 | 0.00 | 0.00 | 0.00 | 91 | 1017.5 |
| 20260905143055 | 69 | 235 | 0.0 | 3.0 | 0.00 | 0.00 | 0.00 | 92 | 1017.5 |
| 20260905141552 | 69 | 14 | 0.0 | 2.0 | 0.00 | 0.00 | 0.00 | 93 | 1017.4 |
| 20260905140059 | 68 | 0 | 0.0 | 2.0 | 0.00 | 0.00 | 0.00 | 93 | 1017.7 |
| 20260905134558 | 68 | 5 | 0.0 | 1.0 | 0.00 | 0.00 | 0.00 | 93 | 1017.8 |
| 20260905133054 | 68 | 0 | 0.0 | 2.0 | 0.00 | 0.00 | 0.00 | 93 | 1017.7 |
| 20260905131555 | 68 | 0 | 0.0 | 1.0 | 0.00 | 0.00 | 0.00 | 93 | 1017.4 |
| 20260905130100 | 68 | 0 | 0.0 | 2.0 | 0.00 | 0.00 | 0.00 | 93 | 1017.0 |
| 20260905124558 | 67 | 26 | 0.0 | 1.0 | 0.00 | 0.00 | 0.00 | 93 | 1016.3 |
| 20260905123057 | 67 | 0 | 0.0 | 2.0 | 0.00 | 0.00 | 0.00 | 93 | 1015.8 |
| 20260905121558 | 67 | 5 | 0.0 | 2.0 | 0.00 | 0.00 | 0.00 | 93 | 1016.3 |
| 20260905120101 | 67 | 345 | 0.0 | 3.0 | 0.00 | 0.00 | 0.00 | 93 | 1016.4 |
| 20260905114610 | 67 | 358 | 0.0 | 1.0 | 0.00 | 0.00 | 0.00 | 92 | 1016.4 |
| 20260905113106 | 67 | 0 | 0.0 | 1.0 | 0.00 | 0.00 | 0.00 | 92 | 1016.0 |
| 20260905111612 | 67 | 0 | 0.0 | 1.0 | 0.00 | 0.00 | 0.00 | 92 | 1015.8 |
| 20260905110101 | 67 | 0 | 0.0 | 3.0 | 0.00 | 0.00 | 0.00 | 92 | 1015.9 |
| 20260905104554 | 67 | 53 | 0.0 | 4.0 | 0.00 | 0.00 | 0.00 | 92 | 1015.9 |
| 20260905103102 | 67 | 141 | 0.0 | 4.0 | 0.00 | 0.00 | 0.00 | 91 | 1015.8 |
| 20260905101559 | 67 | 3 | 0.0 | 4.0 | 0.00 | 0.00 | 0.00 | 91 | 1015.6 |
| 20260905100106 | 67 | 62 | 0.0 | 5.0 | 0.00 | 0.00 | 0.00 | 91 | 1015.7 |
| 20260905094607 | 67 | 31 | 0.0 | 5.0 | 0.00 | 0.00 | 0.00 | 91 | 1015.0 |
| 20260905093053 | 67 | 11 | 1.0 | 4.0 | 0.00 | 0.00 | 0.00 | 90 | 1014.9 |
| 20260905091607 | 67 | 15 | 0.0 | 3.0 | 0.00 | 0.00 | 0.00 | 90 | 1015.1 |
| 20260905090056 | 67 | 0 | 1.0 | 5.0 | 0.00 | 0.00 | 0.00 | 90 | 1015.4 |
| 20260905084555 | 67 | 55 | 1.0 | 3.0 | 0.00 | 0.00 | 0.00 | 90 | 1015.4 |
| 20260905083054 | 67 | 0 | 1.0 | 6.0 | 0.00 | 0.00 | 0.00 | 90 | 1015.4 |
| 20260905081559 | 67 | 20 | 0.0 | 3.0 | 0.00 | 0.00 | 0.00 | 90 | 1015.4 |
| 20260905080100 | 67 | 347 | 0.0 | 4.0 | 0.00 | 0.00 | 0.00 | 90 | 1015.6 |
| 20260905074556 | 66 | 30 | 1.0 | 7.0 | 0.00 | 0.00 | 0.00 | 90 | 1015.6 |
| 20260905073052 | 66 | 12 | 0.0 | 2.0 | 0.00 | 0.00 | 0.00 | 90 | 1015.8 |
| 20260905071603 | 67 | 0 | 0.0 | 2.0 | 0.00 | 0.00 | 0.00 | 89 | 1015.7 |
| 20260905070058 | 67 | 7 | 0.0 | 2.0 | 0.00 | 0.00 | 0.00 | 88 | 1015.8 |
| 20260905064557 | 67 | 0 | 1.0 | 3.0 | 0.00 | 0.00 | 0.00 | 88 | 1015.6 |
| 20260905063052 | 68 | 7 | 0.0 | 2.0 | 0.00 | 0.00 | 0.00 | 88 | 1015.6 |
| 20260905061609 | 68 | 338 | 1.0 | 3.0 | 0.00 | 0.00 | 0.00 | 87 | 1015.6 |
| 20260905060058 | 68 | 340 | 0.0 | 2.0 | 0.00 | 0.00 | 0.00 | 87 | 1015.5 |